Location: Bronnegerveen
(52.9548°N, 6.8388°E)
Time: 02:48:22
(UTC+00:00)

USA 307 - Pass Details

Date: 15 June 2025
Orbit: 495 x 502 km, 54.0° (Epoch: 10 March)

Event Time Altitude Azimuth Distance (km) Brightness Sun altitude
Rises 01:48:06 0° 268° (W) 2,547 5.9 -8.3°
Reaches altitude 10° 01:50:17 10° 270° (W) 1,699 5.0 -8.1°
Maximum altitude 01:54:14 75° 355° (N) 520 2.8 -7.8°
Drops below altitude 10° 01:58:04 10° 83° (E) 1,638 5.9 -7.5°
Sets 02:00:08 0° 85° (E) 2,447 6.7 -7.3°
